Date,TemperatureHighF,TemperatureAvgF,TemperatureLowF,DewpointHighF,DewpointAvgF,DewpointLowF,HumidityHigh,HumidityAvg,HumidityLow,PressureMaxIn,PressureMinIn,WindSpeedMaxMPH,WindSpeedAvgMPH,GustSpeedMaxMPH,PrecipitationSumIn
2013-3-1,25.0,14.1,3.0,1.0,-8.2,-13.0,60,39,18,0.00,40.00,6,4,12,0.00
2013-3-2,31.0,13.2,0.0,-12.0,-19.4,-25.0,38,24,9,0.00,40.00,5,3,8,0.00
2013-3-3,37.0,19.9,1.0,5.0,-3.6,-24.0,73,38,17,0.00,40.00,6,4,12,0.00
2013-3-4,32.0,18.8,7.0,15.0,6.6,-6.0,77,59,34,0.00,40.00,9,6,17,0.00
2013-3-5,24.0,18.6,15.0,13.0,9.5,5.0,85,68,47,0.00,40.00,8,5,14,0.00
2013-3-6,28.0,17.1,6.0,12.0,8.4,2.0,85,70,47,0.00,40.00,6,3,13,0.09
2013-3-7,36.0,21.5,8.0,11.0,9.1,5.0,89,62,34,0.00,40.00,7,4,14,0.04
2013-3-8,30.0,22.8,15.0,21.0,16.8,10.0,91,78,68,0.00,40.00,7,4,13,0.02
2013-3-9,32.0,28.8,25.0,31.0,26.7,21.0,97,92,83,0.00,40.00,6,4,10,0.00
2013-3-10,30.0,25.6,19.0,29.0,21.4,14.0,97,84,70,0.00,40.00,6,4,13,0.03
2013-3-11,25.0,19.7,16.0,16.0,14.3,13.0,86,79,66,0.00,40.00,6,4,13,0.02
2013-3-12,21.0,14.1,6.0,14.0,5.9,1.0,86,70,51,0.00,40.00,8,5,16,0.01
2013-3-13,33.0,18.0,4.0,10.0,3.8,-3.0,76,56,34,0.00,40.00,5,4,12,0.20
2013-3-14,36.0,25.3,11.0,27.0,16.1,4.0,88,68,52,0.00,40.00,8,5,15,0.13
2013-3-15,29.0,16.7,8.0,26.0,4.0,-6.0,88,60,30,0.00,40.00,7,4,17,0.04
2013-3-16,17.0,6.7,-3.0,2.0,-4.3,-11.0,79,62,37,0.00,40.00,9,5,24,0.00
2013-3-17,26.0,8.1,-11.0,7.0,-8.3,-17.0,74,51,23,0.00,40.00,9,5,18,0.01
2013-3-18,28.0,21.8,16.0,24.0,17.1,7.0,91,82,57,0.00,40.00,9,6,22,0.01
2013-3-19,20.0,13.6,8.0,17.0,5.9,1.0,89,72,55,0.00,40.00,12,9,24,0.00
2013-3-20,17.0,10.1,3.0,4.0,0.6,-3.0,78,65,51,0.00,40.00,8,6,18,0.00
2013-3-21,33.0,18.9,9.0,10.0,5.3,2.0,74,57,38,0.00,40.00,5,4,12,0.20
2013-3-22,40.0,23.0,11.0,19.0,11.4,3.0,84,63,37,0.00,40.00,5,4,12,0.08
2013-3-23,36.0,24.8,10.0,25.0,14.9,8.0,91,68,48,0.00,40.00,5,4,10,0.01
2013-3-24,30.0,25.8,19.0,17.0,14.4,10.0,72,62,51,0.00,40.00,6,4,14,0.00
2013-3-25,40.0,25.8,13.0,18.0,13.1,8.0,83,60,37,0.00,40.00,7,4,16,0.00
2013-3-26,44.0,32.3,24.0,24.0,18.2,13.0,81,58,33,0.00,40.00,5,3,10,0.00
2013-3-27,43.0,34.3,28.0,20.0,15.2,10.0,64,48,27,0.00,40.00,4,3,10,0.00
2013-3-28,50.0,42.7,32.0,13.0,9.4,6.0,37,26,19,0.00,40.00,5,3,10,0.00
2013-3-29,52.0,39.7,24.0,26.0,17.4,7.0,60,42,26,0.00,40.00,7,4,15,0.00
2013-3-30,55.0,43.1,33.0,36.0,22.8,-99.9,95,53,23,0.00,40.00,7,5,17,0.00
2013-3-31,34.0,27.5,19.0,22.0,11.2,0.0,85,51,31,0.00,40.00,11,7,25,0.00